Temperature
14 14 14 14 14 14 14 14 15 15 15 16 16 16 16 16 15 15 15 15 15 15 15 15 15 15 15 15 15 15 14 14 14 14 14 15 15 15
14 14 14 14 14 14 14 14 14 14 15 15 16 16 16 16 15 15 15 15 15 15 15 15 15 15 15 15 15 14 14 14 14 14 14 14 14 14
14 14 14 14 14 14 14 14 14 14 14 15 15 15 15 15 15 15 15 15 15 14 14 14 14 14 14 14 14 14 14 14 14 14 14 14 14 14
14 13 13 13 13 13 14 14 14 14 14 14 14 15 15 15 15 15 15 14 14 14 14 14 14 14 14 14 14 14 14 14 14 14 14 14 14 14
13 13 13 13 13 13 13 13 13 13 13 13 14 14 14 15 15 15 15 15 14 14 14 14 14 14 14 14 14 14 14 14 14 14 14 14 14 14
13 13 13 13 13 13 13 13 13 13 13 13 13 13 14 14 14 15 15 15 14 14 14 14 14 14 14 14 14 14 14 14 14 14 14 14 14 14
14 13 13 13 13 13 13 13 13 13 13 13 13 13 13 13 14 14 14 14 14 14 14 14 14 14 14 14 14 14 14 14 14 14 14 14 14 14
14 14 13 13 13 13 13 13 13 12 12 12 12 12 13 13 13 13 13 14 14 14 14 14 14 14 14 14 13 13 14 14 14 14 14 14 14 14
14 14 14 14 14 13 13 13 13 13 12 12 12 12 12 12 12 13 13 13 13 13 13 14 14 14 14 14 13 13 13 14 14 14 13 14 14 14
14 14 14 14 14 14 14 13 13 13 13 13 12 12 12 12 12 12 12 12 13 13 13 13 14 14 14 14 13 13 13 13 13 13 13 13 13 13
14 14 14 14 14 14 14 14 14 13 13 13 13 12 12 12 12 12 12 12 13 13 13 13 13 13 14 14 14 13 13 13 13 13 13 13 13 13
14 14 14 14 14 14 14 14 14 13 13 13 13 13 12 12 12 12 12 12 12 12 13 12 13 13 13 14 14 14 13 13 13 13 13 13 12 13
13 13 13 14 14 14 14 14 14 13 13 13 13 13 13 12 12 12 12 12 12 12 12 12 12 12 12 12 13 13 13 13 13 12 12 12 12 12
13 13 13 13 13 13 13 13 13 13 13 13 13 13 12 12 12 12 12 12 12 12 11 11 11 11 11 11 11 12 12 12 12 12 12 12 12 12
13 13 13 13 13 13 13 13 13 13 13 12 12 12 12 12 12 12 12 12 12 11 11 11 11 11 11 11 11 11 11 11 12 12 12 11 11 11
12 12 12 12 12 12 12 12 12 12 12 12 12 12 12 12 12 12 11 11 11 11 11 11 11 10 10 10 10 11 11 11 11 11 11 11 11 11
11 11 11 12 12 12 12 11 11 11 11 11 11 11 11 11 11 11 11 11 11 11 11 10 10 10 10 10 10 10 10 10 10 10 10 10 10 10
11 11 11 11 11 11 11 11 11 11 11 11 11 11 11 10 10 10 10 10 10 10 10 10 10 10 10 10 10 10 10 10 10 10 10 10 10 10
10 10 10 10 10 10 10 10 10 10 10 10 10 10 10 10 10 10 10 9 9 9 9 9 9 9 9 9 10 10 10 9 9 9 9 9 10 10
9 9 9 9 9 9 9 9 9 9 9 9 9 9 9 9 9 9 9 9 9 9 9 9 9 9 8 8 9 9 9 9 9 9 9 9 9 9
9 9 9 9 9 9 9 9 9 9 9 9 9 9 9 8 8 8 8 8 8 8 8 8 8 8 8 8 8 9 9 8 8 8 8 8 8 8
9 8 8 8 8 8 8 8 8 8 8 8 8 8 8 8 8 8 8 8 8 8 8 8 8 8 8 8 8 8 8 8 8 7 7 7 7 7
8 8 8 8 8 8 8 8 8 8 8 8 8 8 8 7 7 7 7 7 7 7 7 7 7 7 7 7 7 7 7 7 7 7 7 7 7 7
Wind_Speed
8 9 8 7 6 6 5 5 6 4 4 5 5 5 11 12 14 14 13 12 11 9 7 5 3 1 2 3 4 5 5 6 6 6 6 7 7 7
5 7 8 6 6 7 6 6 6 6 5 4 5 3 6 9 13 14 14 13 13 12 10 7 5 3 2 1 2 3 4 4 4 4 4 5 6 7
4 6 7 7 7 7 6 6 6 6 6 4 3 2 5 5 7 11 13 12 12 13 12 10 9 7 5 4 3 3 3 3 3 2 2 4 4 6
3 4 5 5 8 7 7 8 7 7 6 6 3 3 4 4 4 5 8 10 11 13 14 13 11 10 8 7 6 4 4 3 3 2 1 1 2 4
1 2 2 3 5 5 7 7 7 7 6 5 4 3 2 2 2 3 4 5 8 11 13 14 14 13 11 10 9 7 6 5 4 3 2 1 1 2
1 1 1 1 2 3 4 5 6 6 6 5 4 3 2 2 3 3 3 5 5 7 10 12 13 14 14 13 12 11 9 8 7 6 4 3 2 1
1 1 1 1 2 2 2 3 4 4 5 4 4 3 4 3 3 3 4 2 4 5 4 6 8 9 12 14 15 14 13 11 10 9 7 6 4 3
3 2 2 2 3 3 3 4 5 4 4 4 3 4 4 4 3 3 3 2 3 3 4 4 5 8 10 13 16 16 16 14 13 12 10 9 7 6
4 3 2 2 3 3 4 5 5 7 7 4 4 4 4 5 5 4 4 4 4 3 4 4 4 7 9 14 17 19 19 17 16 15 14 12 10 8
5 4 4 4 4 4 4 4 5 5 6 6 5 5 5 5 5 5 4 3 3 2 4 4 3 5 4 10 17 20 21 21 19 18 17 15 13 11
4 4 4 5 5 6 5 5 5 5 7 9 9 8 8 8 6 3 3 3 3 3 5 4 3 3 3 4 11 18 21 22 22 20 19 18 16 14
2 2 4 4 5 4 5 5 5 4 2 2 3 5 5 5 7 6 5 5 3 3 4 4 2 2 3 2 1 5 11 17 21 21 20 20 18 13
1 0 1 2 1 1 3 4 5 3 1 2 1 1 1 1 2 3 5 5 5 4 3 5 3 2 3 3 2 1 4 5 9 13 18 20 20 16
1 0 1 3 4 4 2 0 1 2 2 2 1 0 0 1 1 1 3 4 4 4 3 5 4 4 3 2 3 1 1 3 5 5 9 13 17 19
2 2 4 6 6 5 5 5 4 3 2 1 1 0 0 1 1 1 1 1 0 1 2 4 4 3 3 3 3 2 2 2 4 5 5 7 7 8
4 5 7 7 5 4 4 4 3 2 2 1 1 1 1 1 2 1 1 1 1 1 2 1 2 3 3 4 4 4 3 3 2 4 4 5 6 10
3 3 4 4 4 4 3 3 3 3 2 1 1 1 1 1 1 1 1 1 1 2 2 2 1 2 4 4 4 5 4 4 4 4 4 4 6 7
5 4 4 4 4 4 3 3 3 3 3 2 2 2 1 1 1 1 1 1 2 2 2 2 2 2 2 4 7 6 5 4 3 4 4 4 5 5
7 6 5 5 5 4 4 4 4 4 3 3 3 3 2 2 1 1 2 2 2 3 3 2 1 2 3 4 4 6 4 3 2 3 5 5 5 4
6 6 6 6 5 5 5 5 4 5 4 4 4 3 3 2 2 2 2 2 3 3 3 2 2 3 4 4 4 3 6 5 3 4 3 4 5 6
6 6 6 6 5 5 5 5 5 5 5 4 4 4 4 3 3 3 3 4 3 3 4 4 4 5 4 3 4 4 3 6 7 4 3 3 3 2
6 6 6 6 5 5 5 5 5 5 6 5 5 5 4 4 4 4 3 3 3 3 4 4 4 3 2 4 6 6 4 2 4 6 6 5 2 2
5 5 5 6 6 5 5 6 6 5 5 5 5 5 5 5 4 4 4 4 4 4 4 4 3 2 3 3 5 5 6 4 2 2 2 2 3 3
Wind_Direction
215 213 214 215 206 203 190 179 176 198 238 243 234 218 209 208 211 209 212 215 213 212 209 205 197 148 41 25 20 19 22 23 33 40 43 43 38 36
214 214 216 212 208 206 204 198 186 184 214 233 230 217 196 207 209 206 211 216 218 217 215 216 217 220 237 311 348 360 5 7 19 32 43 43 39 42
223 220 223 209 207 206 203 200 198 187 212 229 218 196 185 195 194 201 210 214 219 220 218 220 223 226 232 247 274 303 323 336 350 0 31 43 45 50
228 228 229 217 213 207 205 206 204 198 200 217 203 191 196 195 187 191 205 216 220 223 223 223 225 228 230 236 246 261 278 288 297 305 323 29 47 53
219 232 241 226 218 212 209 208 205 202 196 199 198 178 167 148 155 197 206 213 221 226 227 229 229 229 231 234 240 248 256 261 264 262 255 229 123 64
152 173 217 221 226 222 215 210 202 198 195 194 189 178 173 158 158 182 210 213 223 221 225 228 230 232 233 234 237 241 245 248 247 243 233 221 201 182
168 173 216 214 212 211 204 196 195 201 194 193 190 181 178 169 189 181 206 208 227 214 218 226 224 229 232 233 235 236 236 238 239 236 229 224 222 225
209 229 255 253 246 238 227 207 195 195 199 193 195 200 198 189 176 176 174 176 251 204 201 235 206 232 234 231 232 231 231 231 232 231 227 224 224 228
212 224 247 238 232 236 252 244 228 219 205 187 192 202 195 193 179 183 190 201 222 191 175 244 207 238 239 234 231 230 228 227 226 225 223 222 222 223
213 219 236 255 240 219 221 236 242 239 227 218 213 215 210 198 191 191 194 210 234 192 172 236 222 233 241 233 232 228 226 224 223 221 220 220 220 221
220 226 235 250 260 231 211 232 253 260 254 240 235 233 229 218 197 181 188 207 241 226 189 216 243 235 246 243 235 229 226 224 222 220 219 218 218 218
212 242 255 263 270 233 202 214 248 265 243 239 240 242 234 229 215 206 206 212 222 242 194 198 232 214 279 268 268 234 229 229 225 223 221 218 215 211
167 233 311 329 349 135 176 201 237 237 197 193 186 181 171 207 220 215 208 210 215 233 193 183 209 206 246 293 304 259 221 222 221 225 225 221 215 206
136 125 347 44 64 72 85 78 231 136 123 120 118 131 231 265 265 244 227 227 231 239 219 188 202 200 213 251 275 284 249 224 217 220 220 221 221 217
71 72 72 67 60 54 53 64 74 87 106 120 146 206 281 333 34 41 41 47 321 277 246 211 216 212 212 233 248 239 258 243 216 221 218 218 218 215
58 58 61 60 53 47 46 46 50 73 99 111 111 75 52 53 50 44 37 22 358 337 349 308 249 223 228 235 238 246 227 244 223 217 222 226 224 223
59 47 41 39 37 31 33 38 38 48 61 65 82 77 63 56 43 37 36 17 321 314 315 318 308 260 244 235 244 247 241 238 230 205 206 232 230 222
69 57 47 44 40 31 30 33 34 32 35 46 54 52 48 43 24 13 358 311 296 295 295 294 305 313 292 256 229 248 250 249 231 207 209 240 259 231
62 55 48 43 39 38 37 40 34 24 29 43 44 35 32 28 18 354 336 318 307 303 300 293 270 269 283 289 279 223 232 253 237 223 222 230 256 257
50 50 44 40 37 39 39 37 35 32 34 36 34 28 24 19 7 347 328 311 305 303 303 298 273 262 263 279 284 281 223 233 247 254 244 235 253 263
46 46 42 40 39 37 37 39 40 37 30 28 24 18 13 9 358 344 334 325 315 306 302 295 282 279 270 267 271 272 262 231 236 250 258 255 260 256
48 47 43 41 37 35 32 33 35 33 26 23 14 8 2 359 350 341 335 326 312 297 292 291 294 294 258 256 270 280 284 276 252 246 245 245 254 267
41 42 40 35 30 27 26 26 28 24 17 9 3 357 352 345 338 330 323 316 311 311 312 311 310 291 273 274 284 289 289 291 278 268 262 258 254 280
Height
1516 1517 1519 1521 1524 1526 1529 1531 1534 1535 1536 1538 1540 1542 1543 1545 1547 1547 1548 1549 1549 1549 1550 1549 1549 1548 1548 1547 1546 1546 1546 1546 1546 1546 1546 1545 1545 1544
1511 1512 1514 1516 1518 1520 1523 1525 1528 1530 1531 1533 1536 1538 1539 1541 1543 1544 1546 1546 1547 1547 1547 1547 1547 1546 1546 1545 1544 1544 1544 1544 1544 1544 1544 1544 1543 1543
1507 1508 1509 1511 1512 1514 1516 1519 1522 1524 1525 1528 1531 1533 1535 1537 1539 1541 1542 1543 1544 1545 1545 1545 1545 1544 1544 1543 1543 1542 1542 1542 1542 1542 1542 1542 1542 1541
1504 1504 1505 1506 1507 1509 1510 1513 1515 1517 1520 1522 1525 1528 1530 1532 1534 1536 1538 1539 1540 1541 1542 1542 1542 1542 1542 1541 1541 1540 1540 1540 1540 1540 1540 1540 1540 1540
1502 1502 1502 1503 1503 1504 1506 1507 1509 1512 1514 1517 1519 1522 1524 1527 1529 1531 1533 1535 1536 1538 1538 1539 1539 1539 1539 1539 1538 1538 1538 1537 1537 1537 1537 1537 1537 1537
1501 1500 1500 1501 1501 1502 1502 1504 1505 1507 1509 1511 1513 1516 1519 1521 1524 1526 1528 1530 1532 1534 1534 1535 1536 1536 1536 1536 1536 1536 1535 1535 1535 1534 1534 1534 1534 1534
1501 1500 1500 1500 1500 1500 1501 1501 1502 1503 1505 1507 1508 1510 1513 1515 1518 1521 1524 1526 1527 1529 1530 1531 1531 1532 1532 1532 1533 1532 1532 1532 1532 1531 1531 1531 1531 1531
1501 1500 1500 1500 1500 1500 1500 1501 1501 1502 1502 1503 1505 1507 1508 1511 1513 1515 1518 1520 1522 1524 1525 1526 1527 1527 1528 1528 1528 1528 1528 1528 1528 1528 1528 1528 1527 1527
1500 1500 1500 1500 1500 1500 1500 1500 1501 1501 1502 1502 1503 1504 1505 1507 1509 1511 1513 1515 1517 1519 1520 1519 1521 1521 1522 1523 1523 1523 1523 1524 1524 1524 1524 1524 1524 1524
1498 1499 1499 1500 1500 1500 1500 1500 1500 1501 1501 1501 1502 1503 1504 1505 1505 1507 1508 1510 1512 1514 1515 1514 1515 1516 1517 1517 1517 1518 1518 1519 1520 1520 1521 1521 1520 1520
1496 1497 1498 1499 1499 1499 1499 1499 1499 1499 1499 1500 1500 1501 1502 1503 1503 1504 1505 1507 1508 1509 1510 1510 1509 1510 1510 1511 1512 1512 1513 1514 1515 1516 1516 1517 1517 1516
1493 1495 1496 1497 1497 1497 1498 1498 1498 1498 1498 1498 1499 1499 1500 1501 1501 1502 1503 1504 1504 1505 1505 1506 1505 1505 1505 1505 1506 1506 1507 1508 1509 1511 1511 1512 1512 1512
1491 1492 1493 1494 1495 1496 1496 1496 1496 1496 1496 1496 1497 1497 1498 1499 1499 1500 1500 1501 1501 1501 1502 1502 1501 1501 1502 1501 1501 1502 1502 1503 1504 1505 1506 1507 1507 1507
1489 1490 1491 1492 1493 1494 1494 1494 1494 1494 1494 1495 1495 1496 1496 1497 1497 1498 1498 1498 1498 1498 1498 1498 1498 1498 1497 1497 1497 1497 1497 1498 1498 1499 1500 1501 1501 1501
1487 1488 1490 1491 1491 1492 1492 1492 1492 1492 1492 1493 1493 1494 1495 1495 1495 1495 1495 1495 1495 1495 1495 1495 1494 1494 1494 1493 1493 1492 1492 1493 1493 1493 1494 1494 1495 1495
1487 1488 1489 1489 1490 1490 1491 1491 1491 1491 1491 1492 1492 1492 1493 1493 1493 1493 1493 1493 1493 1492 1492 1491 1491 1490 1490 1489 1489 1488 1488 1488 1487 1487 1487 1487 1488 1488
1487 1487 1488 1488 1489 1489 1490 1490 1490 1490 1490 1491 1491 1491 1491 1492 1491 1491 1491 1490 1490 1490 1489 1489 1488 1487 1486 1486 1485 1485 1484 1483 1483 1482 1482 1481 1482 1482
1488 1488 1488 1488 1489 1489 1489 1489 1489 1490 1490 1490 1490 1490 1490 1490 1490 1489 1489 1488 1488 1487 1486 1486 1485 1484 1484 1483 1483 1481 1480 1480 1479 1478 1477 1477 1476 1477
1490 1490 1489 1489 1489 1490 1490 1490 1490 1490 1490 1490 1490 1490 1489 1489 1488 1488 1487 1486 1486 1485 1484 1483 1482 1481 1480 1479 1479 1478 1477 1476 1475 1474 1473 1473 1472 1472
1492 1492 1492 1492 1491 1491 1491 1491 1490 1490 1490 1490 1489 1489 1488 1488 1487 1486 1485 1484 1483 1482 1481 1480 1479 1478 1477 1476 1474 1474 1473 1472 1471 1469 1468 1467 1467 1466
1495 1494 1494 1493 1493 1492 1492 1491 1491 1490 1490 1489 1488 1488 1487 1486 1485 1484 1483 1482 1480 1479 1478 1477 1476 1475 1473 1472 1471 1469 1469 1468 1466 1465 1464 1463 1461 1460
1497 1496 1496 1495 1494 1493 1493 1492 1491 1490 1489 1488 1487 1486 1485 1484 1483 1481 1480 1479 1477 1476 1475 1473 1472 1470 1469 1467 1466 1465 1463 1462 1461 1460 1459 1458 1457 1455
1498 1497 1496 1495 1494 1493 1492 1491 1490 1489 1487 1486 1485 1484 1482 1481 1480 1479 1478 1476 1474 1473 1471 1469 1468 1466 1464 1463 1461 1460 1458 1457 1456 1455 1454 1453 1452 1451